Location: Unspecified
(41.5516°N, 88.1098°W)
Time: 06:53:11
(UTC-06:00)

Okean 3 - Visible Passes

Search period start: 16 December 2017 00:00
Search period end: 26 December 2017 00:00
Orbit: 577 x 602 km, 82.5° (Epoch: 15 December)

Date Brightness Start Highest point End Pass type
(mag) Time Alt. Az. Time Alt. Az. Time Alt. Az.
16 Dec 5.3 16:51:05 10° SW 16:54:49 31° WNW 16:58:36 10° NNW visible
17 Dec 5.9 16:59:50 10° SW 17:03:05 21° WNW 17:06:22 10° NNW visible
18 Dec 6.2 17:08:58 10° WSW 17:11:23 15° WNW 17:13:50 10° NW visible
